Regional Weather Roundup
Issued by NWS Northern Indiana

Home | Current Version | Previous Version | Text Only | Print | Product List | Glossary Off
Versions: 1 2 3 4 5 6 7 8 9 10 11 12 13 14 15 16 17 18 19 20 21 22 23 24 25 26 27 28 29 30 31 32 33 34 35 36 37 38 39 40 41 42 43 44 45 46 47 48 49 50

421
ASUS43 KIWX 170600
RWRIWX

KIWX WEATHER ROUNDUP
NATIONAL WEATHER SERVICE NORTHERN INDIANA
200 AM EDT TUE OCT 17 2017

NOTE: "FAIR" INDICATES FEW OR NO CLOUDS BELOW 12,000 FEET WITH NO
SIGNIFICANT WEATHER AND/OR OBSTRUCTIONS TO VISIBILITY.

* THESE STATIONS ARE NOT UNDER NWS QUALITY CONTROL. THEY ALSO MAY NOT
  REPORT WEATHER SUCH AS PRECIPITATION OR FOG.

INZ001>027-170700-
NORTHERN INDIANA

CITY           SKY/WX    TMP DP  RH WIND       PRES   REMARKS
MICHIGAN CITY* CLEAR     45  39  81 S3        30.24S
KNOX*          CLEAR     43  37  81 S5        30.24S
SOUTH BEND     CLEAR     44  39  82 SW7       30.24R
6HR MIN TEMP:  44; 6HR MAX TEMP:  49;

GOSHEN         CLEAR     44  37  76 SW6       30.24S
6HR MIN TEMP:  43; 6HR MAX TEMP:  49;

MONTICELLO*    CLEAR     45  38  76 S6        30.26S
6HR MIN TEMP:  44; 6HR MAX TEMP:  55;

WARSAW*        CLEAR     46  37  71 CALM      30.25F
AUBURN*        CLEAR     45  37  76 S3        30.26S
FORT WAYNE     CLEAR     43  37  79 SW7       30.28R
6HR MIN TEMP:  42; 6HR MAX TEMP:  49;

PERU/GRISSOM   CLEAR     44  38  79 SW8       30.27R
6HR MIN TEMP:  44; 6HR MAX TEMP:  50;


$$
INZ028>050-170700-
CENTRAL INDIANA

CITY           SKY/WX    TMP DP  RH WIND       PRES   REMARKS
LAFAYETTE      CLEAR     43  39  86 W3        30.28S
6HR MIN TEMP:  43; 6HR MAX TEMP:  50;

KOKOMO*        CLEAR     47  38  71 S7        30.28S
6HR MIN TEMP:  44; 6HR MAX TEMP:  50;

MUNCIE*        CLEAR     47  37  68 S5        30.29R
6HR MIN TEMP:  44; 6HR MAX TEMP:  49;

INDIANAPOLIS   CLEAR     45  38  76 SW3       30.30S
6HR MIN TEMP:  44; 6HR MAX TEMP:  54;


$$
MIZ043>046-050>051-056>058-064>065-071>073-077>080-170700-
SOUTHWEST LOWER MICHIGAN

CITY           SKY/WX    TMP DP  RH WIND       PRES   REMARKS
BATTLE CREEK   CLEAR     44  39  82 S8        30.22S
6HR MIN TEMP:  42; 6HR MAX TEMP:  49;

BENTON HARBOR  CLEAR     41  38  89 CALM      30.21S
6HR MIN TEMP:  41; 6HR MAX TEMP:  49;

COLDWATER*     CLEAR     47  37  70 SW3       30.23F
6HR MIN TEMP:  42; 6HR MAX TEMP:  48;

HILLSDALE*     CLEAR     43  37  81 S6        30.23S
HOLLAND        CLEAR     44  39  82 CALM      30.19F
6HR MIN TEMP:  44; 6HR MAX TEMP:  48;

GRAND RAPIDS   CLEAR     45  40  82 S9        30.18F
6HR MIN TEMP:  43; 6HR MAX TEMP:  49;

STURGIS*       CLEAR     43  38  82 S3        30.23S
6HR MIN TEMP:  42; 6HR MAX TEMP:  46;

THREE RIVERS*  FAIR      44  40  87 CALM      30.24S
6HR MIN TEMP:  43; 6HR MAX TEMP:  49;


$$
OHZ001>008-015>018-024>025-170700-
NORTHWEST OHIO

CITY           SKY/WX    TMP DP  RH WIND       PRES   REMARKS
DEFIANCE       CLEAR     42  37  82 CALM      30.27S
6HR MIN TEMP:  41; 6HR MAX TEMP:  49;

FINDLAY        CLEAR     42  36  79 S5        30.27S
6HR MIN TEMP:  40; 6HR MAX TEMP:  50;

TOLEDO EXPRESS CLEAR     43  41  93 S5        30.26S
6HR MIN TEMP:  41; 6HR MAX TEMP:  47;

TOLEDO METCALF CLEAR     44  39  82 S5        30.27S
6HR MIN TEMP:  42; 6HR MAX TEMP:  51;

LIMA           CLEAR     43  39  86 S7        30.28S
6HR MIN TEMP:  43; 6HR MAX TEMP:  50;


$$
AND FOR LAKE MICHIGAN COASTAL AND OPEN LAKE BUOY OBSERVATIONS

STATION/POSITION TEMP    WIND        PRES    VSBY  WAVE
                 AIR SEA DIR/SP/G                  HT/PER
                 (F)     (DEG/KT/KT) (MB)    (MI)  (FT/S)
CALUMET HARBOR    53     200/  6/  8 1022.4S
BURNS HARBOR      52     200/ 11/ 15 1023.7S
SAINT JOSEPH      51     180/  5/ 10 1023.7
SOUTH LAKE BUOY   60 62  260/ 16/ 19 1022.0          2/ 4
4 MI NW BRIDGMAN  56 57  220/ 12/ 16 1023.6S         2/ 3
MICHIGAN CITY     55 57  210/ 12/ 14   N/A           2/ 3

$$
&&




USA.gov is the U.S. government's official web portal to all federal, state and local government web resources and services.